Bridgeport, WV

6:32 PM EST on February 12, 2016 (GMT -0500)
Benedum

Weather History for KCKB - November, 2011

Change the Weather History Date:

Thursday, November 17, 2011

  Actual Average Record
Temperature  
Mean Temperature 36 °F -  
Max Temperature 42 °F 52 °F 82 °F (1958)
Min Temperature 30 °F 30 °F 2 °F (1933)
Degree Days  
Heating Degree Days 29    
Moisture  
Dew Point 27 °F    
Average Humidity 70    
Maximum Humidity 87    
Minimum Humidity 46    
Precipitation  
Precipitation 0.00 in - - ()
Sea Level Pressure  
Sea Level Pressure 30.11 in    
Wind  
Wind Speed 8 mph (WNW)    
Max Wind Speed 21 mph    
Max Gust Speed 32 mph    
Visibility 9 miles    
Events Snow    
Averages and records for this station are not official NWS values.
T = Trace of Precipitation, MM = Missing Value Source: NWS Daily Summary

Daily Weather History Graph

Daily Weather History Graph

Search for Another Location

Airport or City:

Trip Planner

Search our weather history database for the weather conditions in past years. The results will help you decide how hot, cold, wet, or windy it might be!

Date:

Astronomy

Nov. 17, 2011 Rise Set
Actual Time 7:06 AM EST 5:04 PM EST
Civil Twilight 6:37 AM EST 5:33 PM EST
Nautical Twilight 6:05 AM EST 6:06 PM EST
Astronomical Twilight 5:33 AM EST 6:37 PM EST
Moon 11:22 PM EST (11/17) 12:15 PM EST (11/17)
Length of Visible Light 10h 56m
Length of Day
9h 58m
Waning Gibbous, 60% of the Moon is Illuminated
Nov 17
Waning Gibbous
Nov 18
Last Quarter
Nov 25
New
Dec 2
First Quarter
Dec 10
Full

Hourly Weather History & Observations

Time (EST) Temp. Windchill Dew Point Humidity Pressure Visibility Wind Dir Wind Speed Gust Speed Precip Events Conditions
12:53 AM 42.1 °F 36.6 °F 35.1 °F 76% 29.98 in 10.0 mi North 9.2 mph - N/A   Mostly Cloudy
1:04 AM 42.8 °F 38.0 °F 33.8 °F 70% 30.00 in 10.0 mi North 8.1 mph - N/A   Scattered Clouds
1:53 AM 41.0 °F - 34.0 °F 76% 29.99 in 10.0 mi Calm Calm - N/A   Clear
2:53 AM 39.9 °F - 34.0 °F 79% 29.99 in 10.0 mi Calm Calm - N/A   Clear
3:53 AM 37.9 °F 32.7 °F 30.9 °F 76% 29.99 in 10.0 mi North 6.9 mph - N/A   Clear
4:53 AM 37.9 °F 32.1 °F 30.9 °F 76% 30.01 in 10.0 mi NNW 8.1 mph - N/A   Clear
5:53 AM 37.0 °F 31.0 °F 30.0 °F 76% 30.03 in 10.0 mi NNW 8.1 mph - N/A   Scattered Clouds
6:53 AM 36.0 °F 32.1 °F 30.0 °F 79% 30.04 in 10.0 mi NNW 4.6 mph - N/A   Overcast
7:20 AM 35.6 °F 30.7 °F 28.4 °F 75% 30.06 in 10.0 mi NW 5.8 mph - N/A   Overcast
7:53 AM 36.0 °F 29.6 °F 28.9 °F 76% 30.09 in 10.0 mi NNW 8.1 mph - N/A   Overcast
8:13 AM 35.6 °F 31.7 °F 28.4 °F 75% 30.08 in 10.0 mi NW 4.6 mph - N/A   Overcast
8:53 AM 36.0 °F 31.1 °F 28.9 °F 76% 30.08 in 10.0 mi NW 5.8 mph - N/A   Mostly Cloudy
9:36 AM 35.6 °F 29.2 °F 28.4 °F 75% 30.10 in 10.0 mi NNW 8.1 mph - N/A   Overcast
9:53 AM 36.0 °F 29.6 °F 28.9 °F 76% 30.10 in 10.0 mi NW 8.1 mph - N/A   Overcast
10:53 AM 37.9 °F 32.7 °F 28.0 °F 68% 30.10 in 10.0 mi NNW 6.9 mph - N/A   Mostly Cloudy
11:06 AM 37.4 °F 31.4 °F 26.6 °F 65% 30.09 in 10.0 mi NW 8.1 mph - N/A   Mostly Cloudy
11:53 AM 39.0 °F 31.8 °F 25.0 °F 57% 30.09 in 10.0 mi WNW 11.5 mph - N/A   Overcast
12:53 PM 39.0 °F 31.8 °F 24.1 °F 55% 30.07 in 10.0 mi West 11.5 mph 17.3 mph N/A   Overcast
1:53 PM 39.0 °F 31.0 °F 23.0 °F 53% 30.07 in 10.0 mi West 13.8 mph 19.6 mph N/A   Overcast
2:53 PM 37.0 °F 30.4 °F 25.0 °F 62% 30.08 in 10.0 mi WNW 9.2 mph - 0.00 in   Overcast
3:53 PM 37.9 °F 32.1 °F 21.0 °F 51% 30.09 in 9.0 mi West 8.1 mph 16.1 mph 0.00 in Snow Light Snow
4:53 PM 36.0 °F 29.6 °F 21.9 °F 57% 30.12 in 10.0 mi WNW 8.1 mph - N/A   Scattered Clouds
5:12 PM 35.6 °F 24.8 °F 24.8 °F 65% 30.14 in 1.8 mi West 19.6 mph 32.2 mph 0.00 in Snow Light Snow
5:21 PM 32.0 °F 20.8 °F 28.4 °F 87% 30.15 in 0.8 mi WSW 17.3 mph 27.6 mph 0.00 in Snow Light Snow
5:33 PM 32.0 °F 23.6 °F 28.4 °F 87% 30.14 in 1.0 mi WSW 10.4 mph - 0.00 in Snow Light Snow
5:40 PM 32.0 °F 24.2 °F 28.4 °F 87% 30.14 in 3.0 mi WSW 9.2 mph - 0.00 in Snow Light Snow
5:47 PM 32.0 °F 24.8 °F 28.4 °F 87% 30.14 in 9.0 mi WSW 8.1 mph - 0.00 in   Scattered Clouds
5:53 PM 32.0 °F 24.8 °F 27.0 °F 82% 30.16 in 10.0 mi WSW 8.1 mph - 0.00 in   Partly Cloudy
6:53 PM 30.9 °F 26.2 °F 27.0 °F 85% 30.18 in 10.0 mi SSW 4.6 mph - N/A   Mostly Cloudy
7:53 PM 33.1 °F 26.1 °F 25.0 °F 72% 30.21 in 10.0 mi WSW 8.1 mph - N/A   Scattered Clouds
8:53 PM 34.0 °F 22.4 °F 15.1 °F 46% 30.25 in 10.0 mi West 20.7 mph 28.8 mph N/A   Clear
9:53 PM 32.0 °F 24.2 °F 15.1 °F 50% 30.28 in 10.0 mi West 9.2 mph - N/A   Clear
10:53 PM 30.9 °F 24.3 °F 15.1 °F 52% 30.30 in 10.0 mi West 6.9 mph - N/A   Clear
11:53 PM 30.0 °F 24.1 °F 15.1 °F 54% 30.32 in 10.0 mi West 5.8 mph - N/A   Clear